This is the latest recevied weather packets stored in our database for station/object WW5JC. If no packets are shown the sender has not sent any weather packets the latest 10 day(s).
| Time | Temp. | Humidity | Pressure | Rain* | Wind** | Luminosity | Snow |
|---|---|---|---|---|---|---|---|
| 1788449757 | 29.44° C | 73% | 1017 hPa | 0 mm | - | 231 W/m² | - |
| 1788449452 | 29.44° C | 74% | 1016.9 hPa | 0 mm | - | 144 W/m² | - |
| 1788449148 | 28.89° C | 75% | 1016.7 hPa | 0 mm | - | 173 W/m² | - |
| 1788448845 | 28.89° C | 75% | 1016.9 hPa | 0 mm | - | 175 W/m² | - |
| 1788448544 | 28.89° C | 75% | 1017.3 hPa | 0 mm | - | 298 W/m² | - |
| 1788448239 | 28.89° C | 75% | 1016.8 hPa | 0 mm | - | 210 W/m² | - |
| 1788447938 | 29.44° C | 75% | 1016.8 hPa | 0 mm | - | 252 W/m² | - |
| 1788447634 | 30° C | 73% | 1016.7 hPa | 0 mm | - | 280 W/m² | - |
| 1788447327 | 28.89° C | 74% | 1016.7 hPa | 0 mm | - | 462 W/m² | - |
| 1788447023 | 28.89° C | 76% | 1016.9 hPa | 0 mm | - | 328 W/m² | - |
| 1788446722 | 28.33° C | 76% | 1016.8 hPa | 0 mm | - | 210 W/m² | - |
| 1788446418 | 27.78° C | 78% | 1016.7 hPa | 0 mm | - | 152 W/m² | - |
| 1788446114 | 27.78° C | 80% | 1016.9 hPa | 0 mm | - | 150 W/m² | - |
| 1788445810 | 27.78° C | 80% | 1016.7 hPa | 0 mm | - | 140 W/m² | - |
| 1788445504 | 27.22° C | 81% | 1017 hPa | 0 mm | - | 121 W/m² | - |
| 1788445201 | 27.22° C | 81% | 1017 hPa | 0 mm | - | 158 W/m² | - |
| 1788444896 | 26.67° C | 82% | 1017 hPa | 0 mm | - | 145 W/m² | - |
| 1788444592 | 26.67° C | 83% | 1017 hPa | 0 mm | - | 115 W/m² | - |
| 1788444287 | 26.67° C | 84% | 1017 hPa | 0 mm | - | 108 W/m² | - |
| 1788443982 | 26.11° C | 85% | 1017 hPa | 0 mm | - | 106 W/m² | - |
| 1788443678 | 26.11° C | 85% | 1017.2 hPa | 0 mm | - | 101 W/m² | - |
| 1788443373 | 26.11° C | 84% | 1017.1 hPa | 0 mm | - | 115 W/m² | - |
| 1788443072 | 26.11° C | 85% | 1017.1 hPa | 0 mm | - | 127 W/m² | - |
| 1788442770 | 25.56° C | 87% | 1017 hPa | 0 mm | - | 79 W/m² | - |
| 1788442466 | 25.56° C | 86% | 1017 hPa | 0 mm | - | 102 W/m² | - |
* Rain latest hour (hover to see other rain measurements)
** Current wind speed in m/s (hover to see current wind gust speed)